Terminal Aerodrome Forecast
Issued by NWS

Home | Current Version | Previous Version | Text Only | Print | Product List | Glossary On
Versions: 1 2 3 4 5 6 7 8 9 10 11 12 13 14 15 16 17
000
FTUS43 KJKL 291739
TAFSME
TAF
KSME 291739Z 2918/3018 20006KT P6SM SCT050 BKN250
     FM292300 VRB03KT P6SM BKN050
     FM300800 00000KT 4SM BR SCT050
     FM301300 21007KT P6SM BKN040=

USA.gov is the U.S. government's official web portal to all federal, state and local government web resources and services.